TimeCDT,TemperatureF,Dew PointF,Humidity,Sea Level PressureIn,VisibilityMPH,Wind Direction,Wind SpeedMPH,Gust SpeedMPH,PrecipitationIn,Events,Conditions,WindDirDegrees,DateUTC
12:15 AM,72.9,59.9,64,29.99,10.0,SSE,13.8,-,N/A,,Clear,160,2013-07-23 05:15:00
12:35 AM,72.5,59.9,64,29.99,10.0,SSE,13.8,-,N/A,,Clear,160,2013-07-23 05:35:00
12:55 AM,72.0,59.9,66,29.99,10.0,SSE,13.8,-,N/A,,Clear,160,2013-07-23 05:55:00
1:15 AM,71.1,59.4,66,29.98,10.0,SSE,11.5,-,N/A,,Clear,150,2013-07-23 06:15:00
1:35 AM,69.4,59.2,70,29.99,10.0,SSE,9.2,-,N/A,,Clear,150,2013-07-23 06:35:00
1:55 AM,68.7,58.3,69,29.99,10.0,SE,9.2,-,N/A,,Clear,140,2013-07-23 06:55:00
2:15 AM,67.3,57.2,70,29.99,10.0,SE,6.9,-,N/A,,Clear,130,2013-07-23 07:15:00
2:35 AM,65.3,55.4,70,29.99,10.0,East,4.6,-,N/A,,Clear,90,2013-07-23 07:35:00
2:55 AM,66.7,56.7,70,30.00,10.0,ENE,10.4,18.4,N/A,,Clear,60,2013-07-23 07:55:00
3:15 AM,67.1,56.1,68,30.00,10.0,East,12.7,-,N/A,,Clear,90,2013-07-23 08:15:00
3:35 AM,66.7,56.3,69,29.99,10.0,East,10.4,-,N/A,,Clear,100,2013-07-23 08:35:00
3:55 AM,65.3,56.8,74,30.00,10.0,East,9.2,-,N/A,,Clear,90,2013-07-23 08:55:00
4:15 AM,64.2,57.2,78,30.00,10.0,East,9.2,-,N/A,,Clear,100,2013-07-23 09:15:00
4:35 AM,62.8,57.2,82,30.00,10.0,East,11.5,-,N/A,,Clear,100,2013-07-23 09:35:00
4:55 AM,62.6,57.6,84,30.00,10.0,East,10.4,-,N/A,,Clear,100,2013-07-23 09:55:00
5:15 AM,62.1,57.6,85,30.00,10.0,ESE,12.7,-,N/A,,Clear,120,2013-07-23 10:15:00
5:35 AM,61.9,57.4,85,30.00,10.0,SE,13.8,-,N/A,,Clear,130,2013-07-23 10:35:00
5:55 AM,61.0,56.7,86,30.00,10.0,SE,10.4,-,N/A,,Clear,130,2013-07-23 10:55:00
6:15 AM,60.8,56.3,85,30.01,10.0,SSE,9.2,-,N/A,,Clear,150,2013-07-23 11:15:00
6:35 AM,59.9,55.4,85,30.02,10.0,SE,9.2,-,N/A,,Clear,140,2013-07-23 11:35:00
6:55 AM,59.5,54.9,84,30.03,10.0,SE,11.5,-,N/A,,Clear,140,2013-07-23 11:55:00
7:15 AM,59.9,54.9,83,30.05,10.0,SSE,4.6,-,N/A,,Clear,150,2013-07-23 12:15:00
7:35 AM,59.9,54.9,83,30.08,10.0,ENE,3.5,-,N/A,,Clear,70,2013-07-23 12:35:00
7:55 AM,61.7,55.4,80,30.09,10.0,ENE,6.9,-,N/A,,Clear,70,2013-07-23 12:55:00
8:15 AM,63.7,55.4,74,30.08,10.0,East,10.4,-,N/A,,Clear,100,2013-07-23 13:15:00
8:35 AM,64.4,54.9,71,30.11,10.0,East,9.2,-,N/A,,Clear,100,2013-07-23 13:35:00
8:55 AM,64.8,54.5,69,30.10,10.0,SE,11.5,-,N/A,,Clear,130,2013-07-23 13:55:00
9:15 AM,64.9,54.5,69,30.12,10.0,ESE,11.5,-,N/A,,Clear,110,2013-07-23 14:15:00
9:35 AM,66.6,54.5,65,30.11,10.0,ESE,12.7,-,N/A,,Clear,120,2013-07-23 14:35:00
9:55 AM,67.5,54.5,63,30.12,10.0,SE,11.5,-,N/A,,Clear,130,2013-07-23 14:55:00
10:15 AM,70.0,54.7,58,30.12,10.0,ESE,11.5,17.3,N/A,,Clear,120,2013-07-23 15:15:00
10:35 AM,71.6,54.7,55,30.13,10.0,SSE,13.8,17.3,N/A,,Clear,150,2013-07-23 15:35:00
10:55 AM,71.6,54.7,55,30.14,10.0,SE,15.0,-,N/A,,Clear,140,2013-07-23 15:55:00
11:15 AM,73.2,55.0,53,30.14,10.0,SE,11.5,-,N/A,,Clear,130,2013-07-23 16:15:00
11:35 AM,73.9,55.0,52,30.14,10.0,SSE,12.7,-,N/A,,Clear,150,2013-07-23 16:35:00
11:55 AM,75.0,54.7,49,30.14,10.0,SE,10.4,19.6,N/A,,Clear,140,2013-07-23 16:55:00
12:15 PM,76.6,54.3,46,30.14,10.0,SE,10.4,16.1,N/A,,Clear,130,2013-07-23 17:15:00
12:35 PM,77.4,54.0,44,30.14,10.0,SE,13.8,19.6,N/A,,Clear,140,2013-07-23 17:35:00
12:55 PM,78.3,53.8,43,30.13,10.0,SE,13.8,20.7,N/A,,Clear,140,2013-07-23 17:55:00
1:15 PM,79.9,53.6,40,30.12,10.0,SSE,8.1,20.7,N/A,,Clear,150,2013-07-23 18:15:00
1:35 PM,81.1,53.2,38,30.12,10.0,South,10.4,-,N/A,,Clear,180,2013-07-23 18:35:00
1:55 PM,81.5,53.6,38,30.12,10.0,SSE,9.2,-,N/A,,Clear,160,2013-07-23 18:55:00
2:15 PM,81.3,53.2,38,30.12,10.0,SSW,4.6,-,N/A,,Clear,210,2013-07-23 19:15:00
2:35 PM,82.4,52.9,36,30.12,10.0,Calm,Calm,-,N/A,,Clear,0,2013-07-23 19:35:00
3:15 PM,84.2,52.2,33,30.11,10.0,SSW,3.5,-,N/A,,Clear,210,2013-07-23 20:15:00
3:35 PM,85.6,52.2,31,30.11,10.0,SSE,9.2,-,N/A,,Scattered Clouds,160,2013-07-23 20:35:00
3:55 PM,85.5,51.8,31,30.11,10.0,ESE,6.9,17.3,N/A,,Clear,120,2013-07-23 20:55:00
4:15 PM,85.3,51.6,31,30.10,10.0,SE,9.2,-,N/A,,Clear,130,2013-07-23 21:15:00
4:35 PM,86.7,51.4,30,30.10,10.0,SE,6.9,-,N/A,,Clear,130,2013-07-23 21:35:00
4:55 PM,86.9,51.1,29,30.08,10.0,East,9.2,18.4,N/A,,Clear,80,2013-07-23 21:55:00
5:15 PM,87.8,49.3,26,30.08,10.0,East,9.2,18.4,N/A,,Clear,90,2013-07-23 22:15:00
5:35 PM,86.5,50.2,28,30.08,10.0,ESE,9.2,-,N/A,,Clear,110,2013-07-23 22:35:00
5:55 PM,87.8,50.0,27,30.08,10.0,SE,10.4,18.4,N/A,,Clear,130,2013-07-23 22:55:00
6:15 PM,87.6,49.8,27,30.08,10.0,ESE,10.4,-,N/A,,Clear,110,2013-07-23 23:15:00
6:35 PM,86.7,48.7,27,30.08,10.0,South,3.5,-,N/A,,Clear,180,2013-07-23 23:35:00
6:55 PM,84.7,48.4,28,30.08,10.0,SE,3.5,-,N/A,,Clear,140,2013-07-23 23:55:00
7:15 PM,86.2,50.7,29,30.09,10.0,South,4.6,-,N/A,,Clear,190,2013-07-24 00:15:00
7:35 PM,86.2,50.2,29,30.10,10.0,SE,8.1,-,N/A,,Clear,130,2013-07-24 00:35:00
7:55 PM,85.3,50.2,30,30.09,10.0,South,12.7,-,N/A,,Clear,180,2013-07-24 00:55:00
8:15 PM,84.4,50.2,30,30.10,10.0,South,12.7,-,N/A,,Clear,180,2013-07-24 01:15:00
8:35 PM,82.9,50.4,32,30.10,10.0,SSE,10.4,-,N/A,,Clear,160,2013-07-24 01:35:00
8:55 PM,81.0,51.3,36,30.11,10.0,SSE,8.1,-,N/A,,Clear,150,2013-07-24 01:55:00
9:15 PM,78.4,52.3,40,30.11,10.0,SSE,6.9,-,N/A,,Clear,150,2013-07-24 02:15:00
9:35 PM,78.1,53.6,43,30.11,10.0,SSE,9.2,-,N/A,,Clear,150,2013-07-24 02:35:00
9:55 PM,77.9,54.0,43,30.13,10.0,SSE,9.2,-,N/A,,Clear,160,2013-07-24 02:55:00
10:15 PM,77.5,53.4,43,30.12,10.0,SE,12.7,-,N/A,Rain-Thunderstorm,Light Thunderstorms and Rain,140,2013-07-24 03:15:00
10:35 PM,76.5,52.9,44,30.15,10.0,SSE,9.2,-,N/A,,Clear,160,2013-07-24 03:35:00
10:55 PM,74.7,52.7,46,30.16,10.0,South,6.9,-,N/A,,Clear,170,2013-07-24 03:55:00
11:15 PM,74.7,52.7,46,30.18,10.0,ESE,9.2,17.3,N/A,,Scattered Clouds,120,2013-07-24 04:15:00
11:35 PM,73.2,52.3,48,30.18,10.0,SE,10.4,-,N/A,,Scattered Clouds,130,2013-07-24 04:35:00
11:55 PM,69.6,56.5,63,30.18,10.0,ESE,6.9,-,N/A,,Clear,120,2013-07-24 04:55:00